Regional Weather Roundup
Issued by NWS Northern Indiana

Home | Current Version | Previous Version | Text Only | Print | Product List | Glossary Off
Versions: 1 2 3 4 5 6 7 8 9 10 11 12 13 14 15 16 17 18 19 20 21 22 23 24 25 26 27 28 29 30 31 32 33 34 35 36 37 38 39 40 41 42 43 44 45 46 47 48 49 50

000
ASUS43 KIWX 300810
RWRIWX

KIWX WEATHER ROUNDUP
NATIONAL WEATHER SERVICE NORTHERN INDIANA
400 AM EDT TUE AUG 30 2016

NOTE: "FAIR" INDICATES FEW OR NO CLOUDS BELOW 12,000 FEET WITH NO
SIGNIFICANT WEATHER AND/OR OBSTRUCTIONS TO VISIBILITY.

* THESE STATIONS ARE NOT UNDER NWS QUALITY CONTROL. THEY ALSO MAY NOT
  REPORT WEATHER SUCH AS PRECIPITATION OR FOG.

INZ001>027-300900-
NORTHERN INDIANA

CITY           SKY/WX    TMP DP  RH WIND       PRES   REMARKS
GARY*          PTCLDY    72  72 100 CALM      30.16F FOG
VALPARAISO     CLOUDY    71  70  96 CALM      30.18F
MICHIGAN CITY* PTCLDY    70  70 100 MISG      30.17F FOG
LAPORTE*       CLEAR    N/A N/A N/A CALM      30.18F
KNOX*          CLEAR     68  59  73 CALM      30.17F
SOUTH BEND     CLOUDY    73  68  84 S6        30.18F
GOSHEN         CLEAR     71  66  84 SE5       30.19F
MONTICELLO*    CLEAR     71  67  88 CALM      30.17S
LOGANSPORT*    CLEAR     68  68 100 CALM      30.18F FOG
ROCHESTER*     CLEAR     72  72 100 E3        30.19S
WARSAW*        CLEAR     66  66 100 CALM      30.19F
ANGOLA*        CLEAR     66  64  94 CALM      30.20F
FORT WAYNE     PTCLDY    66  63  90 CALM      30.20F
HUNTINGTON*    CLEAR     66  65  95 CALM      30.19S
MARION*          N/A     68  66  94 CALM      30.19S FOG

$$
INZ028>050-300900-
CENTRAL INDIANA

CITY           SKY/WX    TMP DP  RH WIND       PRES   REMARKS
LAFAYETTE      CLEAR     71  71 100 CALM      30.16S FOG
KOKOMO*        CLEAR     70  66  88 E3        30.18S
MUNCIE*        CLEAR     70  67  90 E3        30.19R
INDIANAPOLIS   CLEAR     75  70  84 NE5       30.16S

$$
MIZ043>046-050>051-056>058-064>065-071>073-077>080-300900-
SOUTHWEST LOWER MICHIGAN

CITY           SKY/WX    TMP DP  RH WIND       PRES   REMARKS
BATTLE CREEK   CLOUDY    68  65  90 S6        30.19F
BENTON HARBOR  CLOUDY    74  70  87 SE3       30.16F
COLDWATER*     PTCLDY    67  64  90 CALM      30.19F
HILLSDALE*     CLOUDY    66  62  87 S5        30.20F
HOLLAND        CLOUDY    71  69  93 CALM      30.17F
GRAND RAPIDS   CLOUDY    69  66  90 S3        30.18F
KALAMAZOO      CLOUDY    72  67  84 S7        30.19F
STURGIS*       CLOUDY    70  66  86 CALM      30.19F
THREE RIVERS*  FAIR      72  68  89 S3        30.19F

$$
OHZ001>008-015>018-024>025-300900-
NORTHWEST OHIO

CITY           SKY/WX    TMP DP  RH WIND       PRES   REMARKS
WAUSEON*       FOG       61  61 100 CALM      30.20F VSB 1/2
DEFIANCE       CLEAR     65  62  90 CALM      30.19F
FINDLAY        CLEAR     64  58  80 CALM      30.19F
TOLEDO EXPRESS CLEAR     62  62 100 CALM      30.19F
TOLEDO METCALF CLEAR     63  63 100 CALM      30.20F FOG
LIMA           CLEAR     62  62 100 E5        30.20S

$$
AND FOR LAKE MICHIGAN COASTAL AND OPEN LAKE BUOY OBSERVATIONS

STATION/POSITION TEMP    WIND        PRES    VSBY  WAVE
                 AIR SEA DIR/SP/G                  HT/PER
                 (F)     (DEG/KT/KT) (MB)    (MI)  (FT/S)
CALUMET HARBOR    74     330/  2/  2 1021.1F
MICHIGAN CITY     76     130/  8/ 10   N/A
BURNS HARBOR      75     190/  8/  9 1022.0F
SAINT JOSEPH      75      CALM  /  4 1021.0F
SOUTH LAKE BUOY   76 76  240/  2/  2 1020.6F         0
4 MI NW BRIDGMAN  74 75  150/  4/  6 1020.9F         0
MICHIGAN CITY     74 75  290/  2/  4   N/A           0

$$
&&




USA.gov is the U.S. government's official web portal to all federal, state and local government web resources and services.